#timestamp,LO_Frequency,Hit,StdDev 
1607734815.1,286047001.0,N
1607734816.0,286047001.0,N
1607734835.8,286046998.4,N
1607734855.6,286046999.3,N
1607734877.2,286047001.0,N
1607734895.2,286047000.7,N
1607734915.0,286047000.7,N
1607734915.9,286047000.7,N
1607734935.8,286046998.2,N
1607734955.6,286047000.7,N
1607734975.4,286047000.8,N
1607734995.3,286047000.7,N
1607735015.1,286047000.9,N
1607735035.9,286047000.4,N
1607735055.7,286047000.9,N
1607735075.5,286047000.2,N
1607735095.4,286047000.2,N
1607735115.2,286047000.5,N
1607735135.0,286046999.9,N
1607735135.9,286046999.9,N
1607735155.8,286047000.5,N
1607735175.6,286047000.1,N
1607735195.5,286047000.5,N
1607735215.3,286047000.9,N
1607735235.1,286046999.8,N
1607735255.9,286047002.7,Y
1607735275.7,286047000.5,P
1607735295.5,286046999.8,N
1607735315.4,286047000.6,N
1607735335.2,286047000.4,N
1607735355.1,286047000.7,N
1607735356.0,286047000.7,N
1607735375.8,286047001.1,Y
1607735395.6,286046998.2,P
1607735415.5,286046998.4,N
1607735435.3,286046999.4,N
1607735455.2,286047001.1,N
1607735475.9,286046998.7,N
1607735495.7,286046998.1,N
1607735515.6,286046999.6,N
1607735535.4,286046997.4,N
1607735555.2,286046997.8,N
1607735575.1,286046995.8,Y
1607735576.0,286046995.8,P
1607735595.8,286046995.6,N
1607735615.7,286046995.8,N
1607735635.5,286046996.2,N
1607735655.3,286046996.0,Y
1607735675.2,286046998.5,P
1607735695.0,286046999.3,N
1607735695.9,286046999.3,N
1607735715.7,286046999.6,N
1607735735.6,286046997.7,N
1607735755.4,286046997.0,N
1607735775.3,286046996.7,N
1607735795.1,286046997.6,N
1607735796.0,286046997.6,N
1607735815.8,286046996.8,N
1607735835.7,286046997.7,N
1607735855.5,286046997.8,N
1607735875.3,286046995.3,Y
1607735895.2,286046996.9,P
1607735915.0,286046996.6,P
1607735915.9,286046996.6,P
1607735935.8,286046999.3,N
1607735955.6,286046997.1,N
1607735975.4,286046999.6,N
1607735995.3,286046997.1,N
1607736015.1,286046995.4,Y
1607736035.9,286046998.3,P
1607736055.7,286046999.4,N
1607736075.5,286046996.6,P
1607736095.4,286046999.0,N
1607736115.2,286046999.3,N
1607736135.0,286046996.9,Y
1607736135.9,286046996.9,P
1607736155.8,286047001.2,N
1607736175.6,286047000.5,N
1607736195.5,286047001.1,N
1607736215.3,286047000.8,N
1607736235.1,286047001.2,N
1607736255.9,286047000.0,N
1607736275.7,286046998.6,N
1607736295.5,286047001.0,N
1607736315.4,286047001.1,N
1607736335.2,286046998.4,N
1607736355.0,286046998.8,N
1607736356.0,286046998.8,N
1607736375.8,286046999.1,N
1607736395.6,286046999.4,N
1607736415.5,286046996.5,N
1607736435.3,286046999.6,N
1607736455.1,286047000.5,N
1607736475.9,286046998.1,N
1607736495.7,286046998.2,N
1607736515.5,286047000.8,N
1607736535.4,286046998.5,N
1607736555.2,286046998.6,N
1607736575.1,286046999.6,N
1607736576.0,286046999.6,N
1607736595.8,286046996.8,N
1607736615.6,286046997.2,N
1607736635.5,286046997.6,N
1607736655.3,286046997.6,N
1607736675.1,286046996.8,N
1607736695.9,286046996.6,N
1607736715.7,286046996.9,N
1607736735.6,286046999.2,N
1607736755.4,286046996.9,N
1607736775.2,286046997.4,N
1607736795.1,286046996.6,N
1607736796.0,286046996.6,N
1607736815.8,286046999.5,N
1607736835.6,286046999.2,N
1607736855.5,286046999.3,N
1607736875.3,286046998.3,N
1607736895.2,286047001.2,N
1607736915.9,286046998.3,N
1607736935.7,286047001.1,N
1607736955.6,286046998.2,N
1607736975.4,286046998.2,N
1607736995.2,286046998.6,N
1607737015.1,286046999.5,N
1607737016.0,286046999.5,N
1607737035.8,286046998.8,N
1607737055.7,286046999.0,N
1607737075.5,286046999.6,N
1607737095.3,286046999.6,N
1607737115.2,286046998.7,N
1607737135.0,286046996.8,N
1607737135.9,286046996.8,N
1607737155.7,286046997.1,N
1607737175.6,286046998.6,N
1607737195.4,286046998.4,N
1607737215.3,286046999.4,N
1607737235.1,286046998.9,N
1607737236.0,286046998.9,N
1607737255.8,286046998.4,N
1607737275.7,286047001.2,N
1607737295.5,286047001.2,N
1607737315.3,286047000.5,N
1607737335.2,286047000.0,N
1607737355.0,286047000.3,N
1607737355.9,286047000.3,N
1607737375.8,286047000.2,N
1607737395.6,286047004.4,Y
1607737415.4,286047003.3,P
1607737435.3,286047004.2,N
1607737455.1,286047004.3,N
1607737475.8,286047003.2,N
1607737495.7,286047004.1,N
1607737515.5,286047004.2,N
1607737535.4,286047001.5,N
1607737555.2,286047001.6,N
1607737575.0,286047005.7,Y
1607737575.9,286047005.7,P
1607737595.8,286046999.7,N
1607737615.6,286047002.3,N
1607737635.5,286047002.0,N
1607737655.3,286047003.2,N
1607737675.1,286047003.9,N
1607737695.9,286047004.2,N
1607737715.7,286047005.5,Y
1607737735.5,286047000.3,P
1607737755.4,286047000.0,N
1607737775.2,286047002.1,N
1607737795.0,286047002.0,N
1607737796.0,286047002.0,N
1607737815.8,286047001.6,N
1607737835.6,286047001.3,N
1607737855.5,286047001.3,N
1607737875.3,286047002.3,N
1607737895.1,286047002.2,N
1607737915.9,286046999.8,N
1607737935.7,286047002.4,N
1607737955.5,286047001.3,N
1607737975.4,286047004.0,Y
1607737995.2,286047002.6,P
1607738015.1,286047002.0,P
1607738016.0,286047002.0,P
1607738035.8,286047002.2,Y
1607738055.6,286046998.6,P
1607738075.5,286046999.1,N
1607738095.3,286046999.1,N
1607738115.2,286046998.8,N
1607738135.9,286046998.3,N
1607738155.7,286047001.0,N
1607738175.6,286046999.8,N
1607738195.4,286047000.0,N
1607738215.2,286047001.8,N
1607738235.1,286047001.3,N
1607738236.0,286047001.3,N
1607738255.8,286047002.5,N
1607738275.7,286047002.4,N
1607738295.5,286047000.1,N
1607738315.3,286047000.1,N
1607738335.2,286046999.7,N
1607738355.9,286047002.8,N
1607738375.7,286047000.1,N
1607738395.6,286047002.4,N
